Vorticity
10 15 13 9 8 10 10 9 7 9 10 12 10 9 7 5 4 6 5 9 9 12 7 5 5 5 5 5 5 6 4 7 8 0 6 6 -1 -1 1 3 5 6 5 2 4
11 8 12 15 10 10 10 9 10 10 9 10 10 9 12 12 10 14 12 9 8 6 7 4 2 0 -0 5 6 5 6 6 6 4 2 5 9 2 2 2 4 4 4 10 2
8 10 10 9 9 11 11 10 7 8 9 8 10 8 10 12 9 6 7 5 5 6 3 3 4 1 7 9 7 7 8 5 6 6 7 6 4 7 6 4 2 1 6 7 8
9 11 12 11 9 9 8 8 9 10 9 11 11 13 12 9 7 7 5 7 6 6 4 5 6 6 5 5 6 8 8 10 7 7 7 6 4 4 6 4 4 4 4 8 3
6 7 8 8 6 5 4 4 6 10 11 13 11 9 8 6 3 5 7 8 6 8 8 7 7 8 6 9 11 10 8 9 9 6 6 8 9 10 8 6 5 7 5 5 6
3 5 5 5 6 6 6 9 6 4 7 9 10 11 10 8 10 9 3 3 11 8 8 10 10 10 12 10 9 8 7 9 14 16 15 17 16 14 21 19 17 11 10 10 8
3 5 5 4 5 5 6 6 8 7 5 5 6 8 6 7 5 4 7 5 5 6 11 16 13 10 9 9 11 14 14 15 20 25 32 29 29 31 30 29 42 39 12 16 8
2 3 6 4 5 5 6 6 7 5 6 6 11 9 7 4 5 8 4 14 16 17 11 9 9 10 13 16 14 13 21 19 32 29 17 11 21 9 16 32 29 30 42 23 14
3 2 3 6 7 7 5 6 7 10 8 8 8 7 1 5 8 13 16 13 10 10 9 12 13 13 16 9 20 19 22 31 21 6 -2 6 23 30 25 26 31 26 27 41 24
-0 4 3 5 6 4 8 11 7 6 7 7 6 3 14 5 13 13 10 8 8 11 14 12 14 14 13 22 18 20 17 12 4 23 33 20 20 27 25 22 25 20 25 38 28
1 4 4 4 8 7 9 5 5 10 10 12 2 27 6 16 12 8 8 7 8 11 14 15 13 15 24 25 15 9 5 24 28 8 4 -0 -3 7 17 32 25 24 30 38 30
5 3 4 5 10 8 5 8 11 10 13 10 27 7 12 4 9 7 9 10 10 10 11 12 12 19 28 14 11 12 34 31 20 0 11 16 12 19 38 30 22 21 35 27 45
3 4 5 13 10 8 11 13 11 10 14 23 8 8 1 11 1 7 10 1 9 13 14 13 20 26 23 10 18 21 32 1 4 13 3 8 28 18 38 36 24 27 59 3 41
3 6 12 10 8 11 10 11 15 14 12 4 3 9 6 8 8 7 4 5 11 14 11 19 23 25 5 14 12 10 12 5 5 4 19 0 15 14 18 21 21 54 53 11 28
8 11 8 9 7 9 10 20 13 8 11 5 5 6 5 2 3 5 8 8 13 15 16 10 27 16 4 19 13 0 8 7 13 -8 7 12 4 15 21 33 32 56 20 35 37
7 9 7 8 8 14 18 12 9 4 7 8 8 5 3 5 7 8 7 11 16 17 9 29 35 11 1 15 15 9 9 12 12 15 23 29 16 30 12 39 64 -18 31 -6 -18
9 5 9 8 16 16 13 5 4 3 6 5 5 6 4 7 10 7 9 15 12 14 20 26 23 13 3 21 -0 12 0 13 12 7 -6 15 11 28 -12 23 -18 7 -29 23 -11
8 7 8 20 15 10 8 8 8 9 3 2 3 6 8 8 5 11 13 13 13 12 29 24 15 14 6 21 6 9 12 1 4 14 17 -3 18 -7 29 17 23 14 -3 -26 72
7 9 19 15 9 3 5 4 6 4 5 11 7 9 7 6 10 14 12 10 11 16 36 21 15 14 8 13 11 7 9 5 17 19 9 18 14 22 27 5 15 20 -8 25 -61
11 23 16 7 11 2 2 1 4 6 10 7 11 7 5 9 12 11 10 11 11 19 28 21 12 15 13 3 17 9 11 8 11 18 8 5 13 2 15 10 3 19 27 -35 22
26 16 5 4 8 4 1 2 3 13 10 9 7 6 5 11 11 7 7 9 13 23 19 19 15 12 10 15 10 7 11 -1 9 15 7 8 23 12 5 5 6 3 29 24 9
7 4 1 6 7 6 4 2 9 10 12 5 5 7 8 11 8 10 10 12 13 29 14 17 11 11 9 17 13 11 10 4 10 14 8 10 13 23 11 23 9 3 7 14 -12
3 5 3 4 6 4 3 7 13 9 10 3 8 3 13 6 12 10 8 12 15 30 12 9 10 13 7 11 13 15 11 11 1 6 26 17 2 7 18 10 17 13 10 4 21
3 4 5 7 3 5 9 14 9 10 9 2 7 2 17 8 8 9 8 13 16 32 13 3 11 8 10 7 12 -5 20 8 10 5 7 22 12 7 7 8 12 14 20 20 19
3 6 2 4 10 12 13 9 9 9 6 4 8 5 13 9 8 12 10 10 15 30 14 3 2 25 6 10 8 12 14 13 7 10 5 5 6 7 10 11 12 10 9 7 19
3 6 9 12 12 11 8 7 9 7 8 4 9 8 3 5 4 11 14 14 12 28 8 3 11 23 12 8 9 6 14 9 9 15 11 9 3 6 4 8 5 6 10 10 7
7 9 8 10 9 8 6 6 10 8 8 5 8 5 4 4 5 6 11 12 19 20 10 7 3 14 22 6 9 5 17 7 11 3 21 5 10 6 8 7 4 4 6 6 4
Height
5830 5827 5824 5822 5819 5816 5813 5809 5806 5803 5800 5797 5794 5792 5790 5787 5784 5781 5779 5776 5773 5771 5768 5766 5764 5762 5759 5757 5755 5753 5751 5751 5748 5747 5745 5747 5749 5750 5752 5755 5758 5761 5763 5767 5769
5828 5824 5821 5818 5815 5812 5808 5805 5801 5798 5795 5792 5788 5785 5782 5779 5777 5774 5771 5768 5766 5763 5761 5758 5755 5752 5749 5746 5743 5739 5738 5735 5733 5731 5729 5731 5733 5735 5738 5741 5745 5747 5751 5755 5759
5823 5820 5817 5815 5812 5808 5805 5801 5797 5794 5791 5787 5783 5780 5776 5772 5770 5767 5764 5761 5758 5755 5752 5749 5745 5741 5736 5732 5729 5725 5721 5716 5715 5713 5712 5713 5714 5716 5721 5727 5727 5731 5737 5741 5747
5821 5817 5814 5812 5808 5805 5801 5797 5793 5789 5785 5781 5777 5774 5770 5766 5764 5759 5756 5752 5748 5744 5741 5736 5732 5727 5722 5718 5713 5710 5705 5700 5697 5692 5692 5691 5693 5696 5701 5706 5703 5710 5719 5725 5731
5819 5815 5812 5809 5806 5801 5797 5793 5789 5785 5780 5776 5771 5768 5764 5760 5756 5752 5748 5744 5739 5733 5729 5724 5718 5713 5708 5702 5697 5692 5687 5680 5676 5671 5667 5664 5668 5670 5678 5676 5682 5688 5697 5707 5715
5817 5813 5809 5805 5802 5798 5793 5788 5783 5779 5775 5771 5766 5762 5758 5754 5748 5743 5738 5733 5728 5721 5716 5711 5705 5699 5694 5687 5682 5675 5669 5661 5654 5645 5644 5637 5641 5637 5651 5647 5651 5663 5674 5686 5696
5813 5809 5805 5801 5797 5793 5789 5784 5779 5774 5769 5764 5760 5754 5750 5746 5739 5734 5728 5723 5717 5710 5704 5698 5692 5685 5679 5672 5665 5657 5651 5643 5634 5624 5618 5610 5614 5615 5618 5616 5621 5630 5646 5660 5675
5809 5805 5801 5797 5792 5788 5783 5779 5773 5768 5762 5758 5753 5747 5743 5737 5732 5725 5718 5709 5704 5697 5690 5684 5677 5670 5663 5656 5647 5640 5631 5625 5615 5608 5599 5595 5601 5604 5596 5592 5598 5604 5614 5630 5649
5806 5802 5797 5793 5788 5783 5778 5773 5768 5762 5757 5752 5747 5741 5735 5728 5721 5714 5708 5701 5695 5689 5681 5673 5665 5657 5649 5639 5630 5621 5614 5607 5603 5597 5590 5586 5583 5584 5574 5570 5575 5584 5593 5606 5625
5802 5798 5793 5788 5783 5777 5772 5767 5761 5756 5750 5745 5740 5735 5728 5721 5714 5707 5700 5693 5685 5678 5671 5662 5653 5643 5633 5623 5614 5607 5601 5598 5592 5586 5581 5576 5569 5566 5559 5554 5562 5567 5575 5587 5605
5796 5792 5788 5783 5778 5772 5766 5761 5756 5751 5744 5738 5732 5726 5719 5713 5707 5700 5693 5686 5677 5669 5660 5649 5640 5630 5618 5610 5604 5597 5592 5586 5582 5577 5574 5568 5563 5555 5548 5544 5550 5556 5563 5575 5592
5791 5786 5781 5776 5771 5766 5760 5754 5747 5743 5737 5731 5726 5720 5714 5708 5701 5693 5686 5679 5669 5659 5647 5638 5628 5618 5609 5604 5598 5591 5584 5580 5577 5574 5569 5562 5555 5545 5537 5535 5539 5544 5552 5571 5586
5786 5780 5775 5770 5765 5759 5753 5748 5742 5736 5732 5726 5720 5715 5710 5703 5696 5689 5680 5670 5660 5648 5638 5629 5618 5608 5603 5599 5594 5586 5581 5577 5575 5570 5564 5557 5549 5541 5531 5528 5531 5536 5547 5568 5586
5780 5774 5769 5764 5759 5753 5748 5741 5736 5730 5726 5722 5715 5709 5703 5696 5689 5680 5670 5662 5652 5642 5630 5621 5610 5604 5599 5595 5591 5586 5580 5577 5573 5567 5561 5554 5548 5541 5534 5530 5529 5535 5550 5566 5587
5772 5767 5762 5756 5753 5747 5742 5736 5730 5726 5722 5718 5711 5704 5698 5690 5682 5673 5665 5653 5642 5632 5624 5614 5604 5599 5596 5592 5588 5584 5579 5575 5571 5566 5560 5553 5548 5543 5538 5536 5537 5540 5559 5575 5590
5765 5760 5755 5751 5746 5740 5735 5731 5727 5723 5717 5713 5706 5699 5692 5685 5676 5667 5657 5646 5635 5624 5615 5606 5599 5596 5593 5589 5586 5582 5579 5574 5569 5565 5560 5554 5551 5547 5543 5545 5546 5553 5569 5580 5592
5758 5753 5749 5745 5741 5735 5731 5727 5724 5718 5713 5708 5700 5694 5687 5678 5669 5661 5653 5643 5633 5624 5610 5600 5596 5593 5591 5588 5584 5582 5578 5574 5571 5566 5562 5556 5555 5551 5550 5553 5559 5564 5575 5582 5590
5751 5746 5743 5739 5735 5730 5726 5723 5719 5713 5707 5702 5694 5687 5680 5673 5665 5654 5644 5635 5625 5615 5606 5598 5594 5592 5589 5586 5584 5581 5578 5574 5570 5568 5564 5561 5559 5558 5557 5560 5561 5567 5572 5580 5587
5743 5739 5737 5733 5730 5726 5722 5718 5712 5708 5703 5696 5689 5681 5674 5667 5658 5649 5639 5631 5621 5611 5603 5596 5593 5589 5588 5585 5584 5581 5579 5577 5572 5569 5567 5565 5564 5564 5564 5566 5566 5566 5569 5579 5586
5738 5733 5731 5728 5724 5721 5718 5713 5708 5702 5697 5691 5684 5677 5670 5661 5653 5644 5635 5626 5617 5607 5599 5596 5592 5590 5587 5585 5583 5581 5580 5578 5573 5571 5570 5568 5567 5567 5568 5571 5571 5573 5577 5580 5585
5732 5729 5726 5723 5720 5717 5712 5708 5703 5698 5692 5686 5679 5673 5667 5658 5649 5641 5633 5624 5613 5605 5598 5595 5592 5590 5588 5586 5584 5582 5580 5578 5576 5573 5572 5571 5571 5572 5573 5574 5575 5573 5578 5582 5586
5727 5725 5722 5719 5716 5711 5707 5702 5698 5692 5687 5681 5675 5669 5662 5655 5647 5638 5630 5620 5611 5603 5599 5595 5593 5590 5588 5585 5584 5582 5580 5579 5578 5576 5575 5574 5575 5573 5575 5577 5577 5576 5579 5584 5587
5721 5719 5716 5713 5709 5705 5701 5697 5692 5687 5682 5677 5671 5665 5658 5652 5645 5636 5627 5619 5610 5603 5599 5595 5593 5591 5589 5588 5584 5582 5581 5580 5579 5577 5576 5576 5577 5576 5576 5578 5581 5582 5582 5583 5587
5716 5713 5710 5707 5703 5699 5695 5690 5686 5682 5677 5672 5667 5661 5655 5648 5640 5632 5625 5617 5609 5603 5599 5597 5593 5591 5589 5587 5585 5583 5581 5580 5579 5579 5578 5577 5577 5577 5578 5580 5581 5582 5582 5584 5586
5708 5706 5702 5699 5696 5692 5688 5684 5680 5676 5671 5667 5662 5657 5651 5645 5638 5630 5622 5614 5608 5602 5599 5596 5593 5590 5588 5586 5584 5583 5581 5580 5579 5579 5579 5579 5579 5579 5580 5580 5581 5582 5584 5586 5586
5700 5698 5695 5693 5688 5685 5681 5678 5674 5670 5667 5662 5658 5653 5647 5642 5635 5628 5621 5614 5607 5601 5598 5595 5592 5589 5586 5585 5583 5582 5581 5580 5579 5579 5579 5579 5579 5580 5581 5581 5582 5582 5584 5586 5588
5691 5689 5687 5685 5682 5679 5675 5672 5669 5665 5662 5658 5653 5649 5644 5639 5632 5625 5619 5612 5606 5600 5596 5594 5591 5588 5585 5583 5582 5582 5580 5579 5579 5579 5578 5578 5579 5579 5580 5581 5581 5582 5583 5584 5586